This demonstration page uses our WeatherBlox Daily Observations layout. Learn more.

Left ArrowRight Arrow

Hourly Observations for March 31, 2016

Temp ( °F °C ) Dew Point ( °F °C ) Humidity (%) Winds ( mph kmh ) Pressure ( in mb ) Visibility ( mi km ) Precip ( " mm )
12:53 am 00:53 Cloudy 69 20.6 40 4.4 35 35 SW 8 13 29.78 1008 10 16 N/A
1:53 am 01:53 Cloudy 67 19.4 42 5.6 41 41 SSW 5 7 29.77 1008 10 16 N/A
2:53 am 02:53 Cloudy with Light Rain 63 17.2 47 8.3 56 56 SSW 17 28 29.78 1008 10 16 N/A
3:53 am 03:53 Cloudy with Light Rain 58 14.4 50 10 75 75 SSW 9 15 29.75 1007 10 16 0.04 1.02
4:53 am 04:53 Cloudy 58 14.4 50 10 75 75 SSW 9 15 29.73 1007 10 16 N/A
5:53 am 05:53 Cloudy with Light Rain 58 14.4 50 10 75 75 S 9 15 29.70 1006 10 16 N/A
6:53 am 06:53 Cloudy with Rain 55 12.8 52 11.1 90 90 VRB 7 11 29.71 1006 4 6 0.05 1.27
7:53 am 07:53 Cloudy with Light Rain 54 12.2 52 11.1 93 93 S 5 7 29.70 1006 4 6 0.07 1.78
8:38 am 08:38 Cloudy with Heavy Rain 55 12.8 52 11.1 90 90 S 9 15 29.68 1005 2 3 0.08 2.03
8:45 am 08:45 Cloudy with Rain 55 12.8 52 11.1 90 90 S 7 11 29.68 1005 3 5 0.09 2.29
8:53 am 08:53 Cloudy with Rain 56 13.3 53 11.7 90 90 VRB 7 11 29.66 1004 3 5 0.11 2.79
9:07 am 09:07 Cloudy with Rain 56 13.3 53 11.7 90 90 VRB 7 11 29.65 1004 3 4 0.03 0.76
9:16 am 09:16 Cloudy with Rain 56 13.3 53 11.7 90 90 S 7 11 29.65 1004 4 6 0.04 1.02
9:40 am 09:40 Cloudy with Rain 56 13.3 54 12.2 93 93 S 8 13 29.65 1004 2 3 0.08 2.03
9:51 am 09:51 Cloudy with Rain 55 13 54 12 94 94 S 8 13 29.65 1004 2 3 0.11 2.79
9:53 am 09:53 Cloudy with Rain 57 13.9 54 12.2 90 90 S 8 13 29.63 1003 2 3 0.12 3.05
10:04 am 10:04 Cloudy with Rain 57 13.9 55 12.8 93 93 S 10 17 29.65 1004 3 4 0.02 0.51
10:18 am 10:18 Cloudy with Light Rain 58 14.4 55 12.8 90 90 S 9 15 29.65 1004 3 5 0.03 0.76
10:27 am 10:27 Cloudy with Light Rain 58 14.4 56 13.3 93 93 S 9 15 29.65 1004 2 3 0.04 1.02
10:37 am 10:37 Cloudy with Light Rain 58 14.4 56 13.3 93 93 SSW 9 15 29.65 1004 2 3 0.05 1.27
10:46 am 10:46 Cloudy with Light Rain 58 14.4 56 13.3 93 93 SSW 8 13 29.65 1004 2 3 0.06 1.52
10:53 am 10:53 Cloudy with Light Rain 59 15 56 13.3 90 90 SSW 12 19 29.63 1004 3 4 0.06 1.52
10:56 am 10:56 Cloudy with Light Rain 59 15 57 13.9 93 93 SSW 8 13 29.65 1004 3 5 N/A
11:04 am 11:04 Cloudy with Light Rain 59 15 57 13.9 93 93 SSW 12 19 29.65 1004 3 5 0.01 0.25
11:39 am 11:39 Cloudy with Light Rain 61 16.1 57 13.9 87 87 SSW 10 17 29.65 1004 10 16 0.01 0.25
11:53 am 11:53 Cloudy with Light Rain 62 16.7 57 13.9 84 84 SSW 12 19 29.63 1003 10 16 0.01 0.25
12:53 pm 12:53 Mostly Cloudy 64 17.8 57 13.9 78 78 SW 14 22 29.61 1003 10 16 N/A
1:53 pm 13:53 Cloudy 67 19.4 57 13.9 71 71 SSW 17 28 29.60 1002 10 16 N/A
2:40 pm 14:40 Partly Cloudy 69 20.6 58 14.4 68 68 SSW 14 22 29.56 1001 10 16 N/A
2:53 pm 14:53 Mostly Cloudy 71 21.7 58 14.4 63 63 SSW 14 22 29.56 1001 10 16 N/A
3:53 pm 15:53 Cloudy 70 21.1 58 14.4 66 66 SSW 14 22 29.54 1000 10 16 N/A
4:53 pm 16:53 Cloudy 70 21.1 58 14.4 66 66 SSW 13 20 29.57 1001 10 16 N/A
5:23 pm 17:23 Cloudy with Nearby Thunderstorms 69 20.6 58 14.4 68 68 SSW 15 24 29.56 1001 10 16 0.01 0.25
5:53 pm 17:53 Cloudy with Rain 64 17.8 59 15 84 84 S 14 22 29.51 999 3 5 0.08 2.03
6:53 pm 18:53 Partly Cloudy 63 17.2 56 13.3 78 78 VRB 6 9 29.54 1001 10 16 0.01 0.25
7:53 pm 19:53 Partly Cloudy 63 17.2 56 13.3 78 78 NW 3 6 29.56 1001 10 16 N/A
8:53 pm 20:53 Mostly Clear 59 15 57 13.9 93 93 WNW 3 6 29.57 1001 10 16 N/A
9:53 pm 21:53 Mostly Cloudy with Nearby Thunderstorms 60 15.6 57 13.9 90 90 N N/A 29.59 1002 10 16 N/A
10:10 pm 22:10 Cloudy with Heavy Thunderstorms 59 15 57 13.9 93 93 N N/A 29.59 1002 3 5 0.06 1.52
10:26 pm 22:26 Cloudy with Light Rain 59 15 58 14.4 96 96 VRB 3 6 29.59 1002 10 16 0.08 2.03
10:53 pm 22:53 Cloudy with Light Rain 59 15 57 13.9 93 93 NW 6 9 29.60 1002 9 14 0.09 2.29
11:11 pm 23:11 Cloudy with Light Rain 59 15 58 14.4 96 96 NW 3 6 29.59 1002 10 16 N/A
11:53 pm 23:53 Cloudy 59 15 58 14.4 96 96 N N/A 29.61 1003 10 16 N/A

Powered by AerisWeather